Location: Bosmont
(49.7318°N, 3.8587°E)
Time: 00:44:59
(UTC+00:00)

Cosmos 2208 Rocket - Pass Details

Date: 08 February 2023
Orbit: 753 x 805 km, 74.0° (Epoch: 21 March)

Event Time Altitude Azimuth Distance (km) Brightness Sun altitude
Rises 19:11:12 0° 334° (NNW) 3,219 7.6 -23.0°
Reaches altitude 10° 19:13:34 10° 332° (NNW) 2,292 6.8 -23.4°
Maximum altitude 19:18:44 70° 250° (WSW) 809 4.2 -24.2°
Enters shadow 19:21:38 26° 173° (S) 1,455 5.3 -24.6°
